This is the latest recevied weather packets stored in our database for station/object KB1WCR. If no packets are shown the sender has not sent any weather packets the latest 10 day(s).
| Time | Temp. | Humidity | Pressure | Rain* | Wind** | Luminosity | Snow |
|---|---|---|---|---|---|---|---|
| 1777671734 | 15.56° C | 34% | 1008.2 hPa | 0 mm | - | 166 W/m² | - |
| 1777671430 | 15.56° C | 34% | 1008.1 hPa | 0 mm | - | 190 W/m² | - |
| 1777671126 | 15.56° C | 33% | 1008 hPa | 0 mm | - | 211 W/m² | - |
| 1777670823 | 15.56° C | 33% | 1008 hPa | 0 mm | - | 233 W/m² | - |
| 1777670519 | 15.56° C | 34% | 1007.9 hPa | 0 mm | - | 248 W/m² | - |
| 1777670216 | 15.56° C | 32% | 1007.9 hPa | 0 mm | - | 262 W/m² | - |
| 1777669913 | 15.56° C | 32% | 1007.7 hPa | 0 mm | - | 278 W/m² | - |
| 1777669610 | 15.56° C | 34% | 1007.8 hPa | 0 mm | - | 293 W/m² | - |
| 1777669307 | 16.11° C | 34% | 1007.6 hPa | 0 mm | - | 308 W/m² | - |
| 1777669003 | 16.11° C | 32% | 1007.6 hPa | 0 mm | - | 323 W/m² | - |
| 1777668701 | 15.56° C | 36% | 1007.6 hPa | 0 mm | - | 338 W/m² | - |
| 1777668397 | 16.11° C | 32% | 1007.8 hPa | 0 mm | - | 352 W/m² | - |
| 1777668093 | 16.11° C | 36% | 1007.6 hPa | 0 mm | - | 365 W/m² | - |
| 1777667790 | 15.56° C | 36% | 1007.6 hPa | 0 mm | - | 381 W/m² | - |
| 1777667488 | 16.11° C | 38% | 1007.5 hPa | 0 mm | - | 394 W/m² | - |
| 1777667184 | 15.56° C | 37% | 1007.4 hPa | 0 mm | - | 411 W/m² | - |
| 1777666881 | 16.11° C | 37% | 1007.4 hPa | 0 mm | - | 429 W/m² | - |
| 1777666579 | 16.11° C | 40% | 1007.6 hPa | 0 mm | - | 442 W/m² | - |
| 1777666275 | 15.56° C | 39% | 1007.3 hPa | 0 mm | - | 455 W/m² | - |
| 1777665972 | 16.11° C | 40% | 1007.4 hPa | 0 mm | - | 476 W/m² | - |
| 1777665670 | 15.56° C | 41% | 1007.4 hPa | 0 mm | - | 494 W/m² | - |
| 1777665367 | 15.56° C | 41% | 1007.3 hPa | 0 mm | - | 525 W/m² | - |
| 1777665062 | 16.11° C | 43% | 1007.4 hPa | 0 mm | - | 514 W/m² | - |
| 1777664757 | 15.56° C | 46% | 1007.3 hPa | 0 mm | - | 538 W/m² | - |
| 1777664454 | 15.56° C | 45% | 1007.2 hPa | 0 mm | - | 574 W/m² | - |
* Rain latest hour (hover to see other rain measurements)
** Current wind speed in m/s (hover to see current wind gust speed)